GW0029 Weather Reports


Display with metric or nautical units.
time (UTC)temp
F
wind
direction
speed
MPH
gust
MPH
rain 1hr
in
rain 24hr
in
rain mn
in
humidity
%
barometer
mb
20260510214504 43 0 0.0 0.0 0.00 0.00 0.00 68 1005.9
20260510214005 43 0 0.0 0.0 0.00 0.00 0.00 68 1006.9
20260510213505 43 0 0.0 0.0 0.00 0.00 0.00 68 1006.9
20260510213004 43 0 0.0 0.0 0.00 0.00 0.00 67 1006.9
20260510212504 44 0 0.0 0.0 0.00 0.00 0.00 67 1006.9
20260510212005 44 0 0.0 0.0 0.00 0.00 0.00 67 1006.9
20260510211005 44 0 0.0 0.0 0.00 0.00 0.00 67 1006.9
20260510210505 45 0 0.0 0.0 0.00 0.00 0.00 67 1006.9
20260510210005 45 245 0.0 5.0 0.00 0.00 0.00 67 1006.9
20260510205504 45 246 0.0 5.0 0.00 0.00 0.00 67 1006.9
20260510205005 45 248 0.0 5.0 0.00 0.00 0.00 67 1006.9
20260510204504 45 0 0.0 0.0 0.00 0.00 0.00 67 1006.9
20260510203504 45 0 0.0 0.0 0.00 0.00 0.00 66 1006.9
20260510202504 45 247 0.0 2.0 0.00 0.00 0.00 65 1006.9
20260510201503 45 0 0.0 0.0 0.00 0.00 0.00 64 1006.9
20260510201004 45 225 0.0 3.0 0.00 0.00 0.00 64 1008.0
20260510200503 45 229 0.0 4.0 0.00 0.00 0.00 64 1008.0
20260510200005 46 230 0.0 4.0 0.00 0.00 0.00 63 1008.0
20260510195503 46 0 0.0 0.0 0.00 0.00 0.00 62 1006.9
20260510195005 46 251 1.0 5.0 0.00 0.00 0.00 62 1006.9
20260510194503 47 248 1.0 6.0 0.00 0.00 0.00 62 1006.9
20260510194004 47 252 1.0 6.0 0.00 0.00 0.00 61 1008.0
20260510193504 47 253 1.0 5.0 0.00 0.00 0.00 61 1008.0
20260510192503 48 248 1.0 5.0 0.00 0.00 0.00 60 1008.0
20260510192007 48 261 1.0 5.0 0.00 0.00 0.00 60 1008.0
20260510191504 48 271 1.0 6.0 0.00 0.00 0.00 59 1008.0
20260510191005 48 279 0.0 6.0 0.00 0.00 0.00 59 1008.0
20260510190505 48 258 0.0 3.0 0.00 0.00 0.00 58 1008.0
20260510190005 48 256 0.0 4.0 0.00 0.00 0.00 57 1008.0
20260510185503 49 234 1.0 8.0 0.00 0.00 0.00 57 1008.0
20260510185005 49 229 1.0 8.0 0.00 0.00 0.00 56 1008.0
20260510184504 49 268 1.0 5.0 0.00 0.00 0.00 57 1008.0
20260510184005 50 272 1.0 6.0 0.00 0.00 0.00 57 1008.0
20260510183503 50 275 1.0 6.0 0.00 0.00 0.00 56 1008.0
20260510182005 51 272 3.0 10.0 0.00 0.00 0.00 56 1008.0
20260510181504 51 275 3.0 7.0 0.00 0.00 0.00 56 1008.0
20260510181004 51 266 2.0 7.0 0.00 0.00 0.00 56 1008.0
20260510180504 51 259 3.0 8.0 0.00 0.00 0.00 56 1008.0
20260510180005 52 262 3.0 8.0 0.00 0.00 0.00 55 1008.0
20260510175005 53 276 2.0 7.0 0.00 0.00 0.00 56 1008.0
20260510174504 53 253 1.0 6.0 0.00 0.00 0.00 56 1008.0
20260510174005 53 265 2.0 8.0 0.00 0.00 0.00 57 1006.9
20260510173503 53 271 5.0 14.0 0.00 0.00 0.00 56 1006.9
20260510173005 53 269 5.0 14.0 0.00 0.00 0.00 55 1006.9
20260510172005 54 260 3.0 10.0 0.00 0.00 0.00 56 1006.9
20260510171503 54 272 5.0 12.0 0.00 0.00 0.00 56 1006.9
20260510171005 54 270 6.0 12.0 0.00 0.00 0.00 56 1008.0
20260510165503 55 272 6.0 11.0 0.00 0.00 0.00 58 1008.0
20260510165005 56 267 4.0 11.0 0.00 0.00 0.00 59 1008.0
20260510164504 55 243 2.0 7.0 0.00 0.00 0.00 60 1008.0
20260510164005 55 259 4.0 9.0 0.00 0.00 0.00 60 1008.0
20260510163503 56 267 5.0 10.0 0.00 0.00 0.00 58 1008.0
20260510163006 56 272 4.0 10.0 0.00 0.00 0.00 58 1008.0
20260510162503 56 279 4.0 8.0 0.00 0.00 0.00 60 1009.0
20260510162004 56 271 4.0 8.0 0.00 0.00 0.00 61 1009.0
20260510161005 56 269 2.0 10.0 0.00 0.00 0.00 63 1009.0
20260510160503 55 264 3.0 9.0 0.00 0.00 0.00 62 1009.0
20260510160005 56 268 5.0 12.0 0.00 0.00 0.00 62 1009.0
20260510155504 56 270 6.0 13.0 0.00 0.00 0.00 60 1006.9
20260510155005 56 272 4.0 13.0 0.00 0.00 0.00 60 1006.9
20260510154005 57 255 4.0 11.0 0.00 0.00 0.00 59 1009.0
20260510153503 57 286 4.0 10.0 0.00 0.00 0.00 57 1009.0
20260510153005 57 270 4.0 10.0 0.00 0.00 0.00 58 1009.0
20260510152503 57 256 4.0 11.0 0.00 0.00 0.00 59 1010.0
20260510152005 57 268 4.0 11.0 0.00 0.00 0.00 59 1010.0
20260510151504 57 269 4.0 12.0 0.00 0.00 0.00 60 1010.0
20260510150005 57 262 2.0 11.0 0.00 0.00 0.00 60 1010.0
20260510145503 57 251 2.0 8.0 0.00 0.00 0.00 59 1010.0
20260510145005 57 268 5.0 11.0 0.00 0.00 0.00 59 1010.0
20260510144504 57 268 6.0 11.0 0.00 0.00 0.00 58 1010.0
20260510144005 58 261 5.0 10.0 0.00 0.00 0.00 58 1010.0
20260510142505 59 292 4.0 10.0 0.00 0.00 0.00 58 1010.0
20260510142004 59 269 3.0 8.0 0.00 0.00 0.00 57 1010.0
20260510141504 59 267 4.0 11.0 0.00 0.00 0.00 59 1010.0
20260510141005 58 276 4.0 11.0 0.00 0.00 0.00 59 1010.0
20260510140503 58 260 4.0 11.0 0.00 0.00 0.00 55 1010.0
20260510140005 59 237 4.0 10.0 0.00 0.00 0.00 57 1010.0
20260510135504 59 245 3.0 8.0 0.00 0.00 0.00 56 1010.0
20260510135005 59 237 2.0 6.0 0.00 0.00 0.00 59 1010.0
20260510134503 59 259 4.0 11.0 0.00 0.00 0.00 59 1010.0
20260510134008 58 272 5.0 11.0 0.00 0.00 0.00 57 1010.0
20260510133503 58 279 5.0 10.0 0.00 0.00 0.00 55 1010.0
20260510133008 59 251 5.0 10.0 0.00 0.00 0.00 53 1010.0
20260510132505 59 255 5.0 10.0 0.00 0.00 0.00 53 1010.0
20260510131503 59 286 6.0 13.0 0.00 0.00 0.00 51 1010.0
20260510131004 59 278 4.0 13.0 0.00 0.00 0.00 53 1010.0
20260510130504 59 271 4.0 11.0 0.00 0.00 0.00 53 1010.0
20260510125004 59 233 4.0 7.0 0.00 0.00 0.00 53 1010.0
20260510124504 58 238 4.0 7.0 0.00 0.00 0.00 51 1010.0
20260510124006 58 248 5.0 9.0 0.00 0.00 0.00 55 1011.0
20260510123503 58 245 5.0 11.0 0.00 0.00 0.00 56 1011.0
20260510123005 58 249 4.0 11.0 0.00 0.00 0.00 59 1011.0
20260510122504 58 264 4.0 10.0 0.00 0.00 0.00 61 1010.0
20260510122005 58 270 5.0 10.0 0.00 0.00 0.00 62 1010.0
20260510121005 58 214 4.0 8.0 0.00 0.00 0.00 69 1011.0
20260510120503 59 203 5.0 13.0 0.00 0.00 0.00 69 1011.0
20260510120005 59 206 7.0 13.0 0.00 0.00 0.00 70 1011.0
20260510115006 58 195 7.0 12.0 0.00 0.00 0.00 70 1012.0
20260510114503 58 203 5.0 10.0 0.00 0.00 0.00 69 1012.0
20260510114005 58 215 4.0 10.0 0.00 0.00 0.00 69 1012.0
20260510113504 58 217 4.0 10.0 0.00 0.00 0.00 71 1012.0
20260510113005 58 222 5.0 13.0 0.00 0.00 0.00 71 1012.0
20260510112504 57 224 5.0 13.0 0.00 0.00 0.00 72 1011.0
20260510112004 57 210 4.0 8.0 0.00 0.00 0.00 72 1011.0
20260510111504 56 209 3.0 8.0 0.00 0.00 0.00 72 1011.0
20260510111004 56 217 4.0 9.0 0.00 0.00 0.00 73 1012.0
20260510110503 56 204 5.0 10.0 0.00 0.00 0.00 73 1012.0
20260510110005 56 199 4.0 10.0 0.00 0.00 0.00 73 1012.0
20260510105004 55 205 5.0 10.0 0.00 0.00 0.00 72 1012.0
20260510104504 55 198 4.0 10.0 0.00 0.00 0.00 73 1012.0
20260510104005 54 197 5.0 13.0 0.00 0.00 0.00 73 1011.0
20260510103005 54 204 6.0 11.0 0.00 0.00 0.00 74 1011.0
20260510102504 53 211 5.0 8.0 0.00 0.00 0.00 74 1011.0
20260510101005 51 207 1.0 4.0 0.00 0.00 0.00 76 1012.0
20260510100503 51 208 1.0 5.0 0.00 0.00 0.00 77 1012.0
20260510100005 50 206 2.0 7.0 0.00 0.00 0.00 75 1012.0
20260510095503 50 197 3.0 7.0 0.00 0.00 0.00 76 1012.0
20260510095005 50 201 2.0 5.0 0.00 0.00 0.00 74 1012.0
20260510094504 50 202 2.0 6.0 0.00 0.00 0.00 73 1012.0
20260510094004 50 194 2.0 6.0 0.00 0.00 0.00 71 1012.0
20260510093504 50 195 2.0 5.0 0.00 0.00 0.00 73 1012.0
20260510093005 50 202 2.0 5.0 0.00 0.00 0.00 72 1012.0
20260510092005 50 198 3.0 6.0 0.00 0.00 0.00 67 1012.0
20260510091504 50 199 4.0 9.0 0.00 0.00 0.00 65 1012.0
20260510091005 50 198 4.0 9.0 0.00 0.00 0.00 65 1012.0
20260510090504 50 201 4.0 8.0 0.00 0.00 0.00 63 1012.0
20260510090006 50 199 4.0 8.0 0.00 0.00 0.00 60 1012.0
20260510085504 50 204 3.0 7.0 0.00 0.00 0.00 60 1013.0
20260510085004 51 211 3.0 8.0 0.00 0.00 0.00 58 1013.0
20260510084504 51 205 2.0 8.0 0.00 0.00 0.00 57 1013.0
20260510083503 51 211 2.0 6.0 0.00 0.00 0.00 56 1012.0
20260510083005 51 216 0.0 5.0 0.00 0.00 0.00 56 1012.0
20260510082504 51 208 1.0 4.0 0.00 0.00 0.00 55 1012.0
20260510082005 51 192 2.0 5.0 0.00 0.00 0.00 55 1012.0
20260510081503 51 151 2.0 7.0 0.00 0.00 0.00 55 1012.0
20260510080503 51 167 3.0 6.0 0.00 0.00 0.00 54 1013.0
20260510080007 51 165 2.0 6.0 0.00 0.00 0.00 54 1013.0
20260510075503 51 185 1.0 5.0 0.00 0.00 0.00 55 1013.0
20260510075005 51 184 1.0 5.0 0.00 0.00 0.00 56 1013.0
20260510074503 51 169 1.0 5.0 0.00 0.00 0.00 55 1013.0
20260510074004 51 154 1.0 5.0 0.00 0.00 0.00 55 1013.0
20260510073503 51 161 2.0 5.0 0.00 0.00 0.00 55 1013.0
20260510073004 51 156 1.0 5.0 0.00 0.00 0.00 55 1013.0
20260510072503 51 130 3.0 6.0 0.00 0.00 0.00 55 1013.0
20260510071503 51 134 2.0 8.0 0.00 0.00 0.00 55 1013.0
20260510071005 51 140 3.0 8.0 0.00 0.00 0.00 54 1013.0
20260510070005 51 152 5.0 9.0 0.00 0.00 0.00 54 1013.0
20260510065503 51 156 6.0 9.0 0.00 0.00 0.00 53 1014.0
20260510065004 51 163 5.0 9.0 0.00 0.00 0.00 53 1014.0
20260510064504 52 170 4.0 8.0 0.00 0.00 0.00 54 1014.0
20260510063503 53 171 6.0 12.0 0.00 0.00 0.00 52 1014.0
20260510062504 53 151 7.0 12.0 0.00 0.00 0.00 54 1014.0
20260510062004 53 140 7.0 10.0 0.00 0.00 0.00 54 1014.0
20260510060503 50 156 6.0 10.0 0.00 0.00 0.00 62 1015.0
20260510060005 49 132 5.0 8.0 0.00 0.00 0.00 65 1015.0
20260510054504 47 105 7.0 10.0 0.00 0.00 0.00 69 1014.0
20260510054004 46 101 7.0 10.0 0.00 0.00 0.00 70 1014.0
20260510053504 46 100 6.0 8.0 0.00 0.00 0.00 71 1014.0
20260510053004 45 107 7.0 9.0 0.00 0.00 0.00 72 1014.0
20260510052504 45 112 7.0 9.0 0.00 0.00 0.00 72 1013.0
20260510051503 44 115 6.0 8.0 0.00 0.00 0.00 72 1013.0
20260510050006 44 115 6.0 8.0 0.00 0.00 0.00 73 1014.0
20260510045503 44 118 6.0 8.0 0.00 0.00 0.00 73 1014.0
20260510045004 43 115 6.0 7.0 0.00 0.00 0.00 73 1014.0
20260510044504 43 117 6.0 7.0 0.00 0.00 0.00 74 1014.0
20260510043503 42 118 5.0 7.0 0.00 0.00 0.00 75 1015.0
20260510043005 42 121 5.0 7.0 0.00 0.00 0.00 76 1015.0
20260510042503 42 118 5.0 7.0 0.00 0.00 0.00 77 1015.0
20260510042005 41 119 5.0 6.0 0.00 0.00 0.00 78 1015.0
20260510040504 40 112 6.0 8.0 0.00 0.00 0.00 79 1015.0
20260510035503 39 121 6.0 7.0 0.00 0.00 0.00 79 1015.0
20260510035005 39 120 5.0 7.0 0.00 0.00 0.00 79 1015.0
20260510034503 39 117 6.0 7.0 0.00 0.00 0.00 79 1015.0
20260510034005 39 115 6.0 8.0 0.00 0.00 0.00 79 1015.0
20260510033503 39 116 6.0 8.0 0.00 0.00 0.00 80 1015.0
20260510033005 39 117 6.0 7.0 0.00 0.00 0.00 80 1015.0
20260510032503 39 115 6.0 7.0 0.00 0.00 0.00 81 1015.0
20260510032004 39 118 5.0 7.0 0.00 0.00 0.00 81 1015.0
20260510031504 39 121 5.0 7.0 0.00 0.00 0.00 81 1015.0
20260510031005 39 117 5.0 8.0 0.00 0.00 0.00 82 1015.0
20260510030504 39 118 5.0 8.0 0.00 0.00 0.00 82 1015.0
20260510025503 39 120 5.0 7.0 0.00 0.00 0.00 82 1016.0
20260510025005 39 127 5.0 5.0 0.00 0.00 0.00 81 1016.0
20260510024503 39 128 5.0 6.0 0.00 0.00 0.00 82 1016.0
20260510024005 39 125 5.0 6.0 0.00 0.00 0.00 82 1016.0
20260510023503 39 126 5.0 5.0 0.00 0.00 0.00 81 1016.0
20260510023005 38 124 4.0 5.0 0.00 0.00 0.00 80 1016.0
20260510022504 38 121 4.0 5.0 0.00 0.00 0.00 81 1016.0
20260510022004 38 119 5.0 6.0 0.00 0.00 0.00 82 1016.0
20260510021504 38 116 5.0 7.0 0.00 0.00 0.00 82 1016.0
20260510021004 38 114 6.0 8.0 0.00 0.00 0.00 81 1016.0
20260510020503 38 112 6.0 8.0 0.00 0.00 0.00 81 1016.0
20260510020005 38 110 6.0 7.0 0.00 0.00 0.00 81 1016.0
20260510015504 39 113 6.0 7.0 0.00 0.00 0.00 80 1015.0
20260510014503 39 116 6.0 7.0 0.00 0.00 0.00 79 1015.0
20260510014004 39 113 5.0 6.0 0.00 0.00 0.00 79 1016.0
20260510013504 39 116 5.0 6.0 0.00 0.00 0.00 79 1016.0
20260510012503 39 118 5.0 8.0 0.00 0.00 0.00 77 1016.0
20260510012005 39 115 6.0 8.0 0.00 0.00 0.00 77 1016.0
20260510011503 39 117 6.0 7.0 0.00 0.00 0.00 76 1016.0
20260510011005 40 118 5.0 7.0 0.00 0.00 0.00 76 1016.0
20260510010504 40 119 5.0 7.0 0.00 0.00 0.00 76 1016.0
20260510010005 40 116 6.0 7.0 0.00 0.00 0.00 76 1016.0
20260510005504 40 120 4.0 7.0 0.00 0.00 0.00 76 1017.0
20260510005004 40 140 3.0 5.0 0.00 0.00 0.00 74 1017.0
20260510004504 40 133 4.0 6.0 0.00 0.00 0.00 74 1017.0
20260510004006 40 121 5.0 7.0 0.00 0.00 0.00 74 1017.0
20260510003504 40 120 6.0 7.0 0.00 0.00 0.00 74 1017.0
20260510003005 40 121 6.0 7.0 0.00 0.00 0.00 73 1017.0
20260510002503 40 117 6.0 7.0 0.00 0.00 0.00 74 1018.0
20260510002005 40 114 6.0 7.0 0.00 0.00 0.00 73 1018.0
20260510001503 40 115 6.0 7.0 0.00 0.00 0.00 73 1018.0
20260510001004 40 118 5.0 7.0 0.00 0.00 0.00 73 1018.0
20260510000005 40 115 5.0 7.0 0.00 0.00 0.00 73 1018.0
20260509235005 40 115 5.0 7.0 0.00 0.00 0.00 73 1019.0
20260509234006 40 116 6.0 8.0 0.00 0.00 0.00 74 1018.0
20260509233503 40 111 6.0 8.0 0.00 0.00 0.00 74 1018.0
20260509233004 40 106 3.0 8.0 0.00 0.00 0.00 74 1018.0
20260509232005 40 112 4.0 7.0 0.00 0.00 0.00 73 1018.0
20260509231504 41 104 5.0 7.0 0.00 0.00 0.00 74 1018.0
20260509231005 41 102 6.0 7.0 0.00 0.00 0.00 73 1018.0
20260509230504 41 100 5.0 7.0 0.00 0.00 0.00 73 1018.0
20260509225504 42 92 4.0 5.0 0.00 0.00 0.00 72 1017.0
20260509225004 42 97 4.0 6.0 0.00 0.00 0.00 73 1017.0
20260509224504 42 97 4.0 6.0 0.00 0.00 0.00 72 1017.0
20260509224005 42 93 3.0 6.0 0.00 0.00 0.00 71 1018.0
20260509223005 42 68 0.0 4.0 0.00 0.00 0.00 68 1018.0
20260509222504 42 85 1.0 4.0 0.00 0.00 0.00 68 1018.0
20260509222004 42 90 0.0 4.0 0.00 0.00 0.00 68 1018.0
20260509221504 42 93 1.0 5.0 0.00 0.00 0.00 69 1018.0
20260509221004 42 92 3.0 5.0 0.00 0.00 0.00 71 1018.0
20260509220503 42 91 3.0 5.0 0.00 0.00 0.00 70 1018.0
20260509220004 42 90 1.0 5.0 0.00 0.00 0.00 67 1018.0
20260509215504 43 91 3.0 5.0 0.00 0.00 0.00 66 1018.0
20260509215004 43 90 4.0 5.0 0.00 0.00 0.00 67 1018.0